Weather in Aleshkino

Russia / Ulyanovsk Oblast     53°52′24″N   48°48′41″E
temp.,
°C
wind,
m/s
gust,
m/s
humid.,
%
clouds,
%
prec.,
mm/h
press.,
hPa
HPBL,
m
17 april, sat
sat1701:00+9nne498628 0.0 1022209
04:00+8nne599326 0.0 1023197
07:00+7ne5109423 0.0 1023241
10:00+10ne687833 0.0 1023349
13:00+13ne67625 0.0 1023592
16:00+15ne67534 0.0 1022674
19:00+12ne49584 0.0 1022319
22:00+9ne512623 0.0 1022273
18 april, sun
sun1801:00+7ne410650 0.0 1022205
04:00+5ne5116890 0.0 1022221
07:00+5ne51267100 0.0 1022294
10:00+9ene61054100 0.0 1022479
13:00+12ene7944100 0.0 1021792
16:00+12ne6944100 0.0 1021804
19:00+10ne4952100 0.0 1021297
22:00+8ne5126192 0.0 1022381
19 april, mon
mon1901:00+6ene61272100 0.0 1023503
04:00+4ne5107296 0.0 1024421
07:00+3ne61177100 0.0 1025494
10:00+5ne7964100 0.0 1026689
13:00+8ene8962100 0.0 10261235
16:00+7ene7962100 0.0 10261034
19:00+5e61073100 0.0 1028923
22:00+4e6128086 0.0 1029826
20 april, tue
tue2001:00+3e5128288 0.0 1029795
04:00+3e6117694 0.0 1029763
07:00+2e6116619 0.0 1030648
10:00+5ese811525 0.0 1030843
13:00+7ese8114687 0.0 10291065
16:00+9se8114363 0.0 10271312
19:00+8ese6115199 0.0 1026935
22:00+6se6145399 0.0 1027643
21 april, wed
wed2101:00+4ese7155476 0.0 1026550
04:00+4se71555100 0.0 1026555
07:00+4se81657100 0.0 1025594
10:00+5sse81652100 0.0 1025713
13:00+6sse71453100 0.0 1025871
16:00+5sse61371100 0.7 1026793
19:00+4sse61485100 0.8 1027691
22:00+4sse51392100 1.9 1027609